"read_dt","SO2 (ppb)","flags","PMT voltage (V)","lamp voltage (V)","lamp intensity (Hz)","internal temp (C)","react chamber temp (C)","sample flow (l/min)","pres (mmHg)","SO2 bkg (ppb)","SO2 coefficient"
2015-03-28 00:00:00,3431E-3,5C000000,-0724,0834,12205,029.9,045.5,0.473,741.3,01.18,0.508
2015-03-28 00:01:00,3272E-3,5C000000,-0724,0835,12184,029.9,045.5,0.474,741.3,01.18,0.508
2015-03-28 00:02:00,3296E-3,5C000000,-0724,0835,12162,030.0,045.5,0.474,741.3,01.18,0.508
2015-03-28 00:03:00,3595E-3,5C000000,-0724,0834,12069,030.0,045.5,0.473,741.3,01.18,0.508
2015-03-28 00:04:00,3527E-3,5C000000,-0724,0835,12028,030.0,045.5,0.473,741.3,01.18,0.508
2015-03-28 00:05:00,3470E-3,5C000000,-0724,0835,12136,030.0,045.5,0.474,741.3,01.18,0.508
2015-03-28 00:06:00,3480E-3,5C000000,-0724,0834,12291,030.0,045.5,0.473,741.3,01.18,0.508
2015-03-28 00:07:00,3516E-3,5C000000,-0724,0835,12164,030.0,045.5,0.473,741.3,01.18,0.508
2015-03-28 00:08:00,3581E-3,5C000000,-0724,0834,11986,030.0,045.5,0.473,741.3,01.18,0.508
2015-03-28 00:09:00,3681E-3,5C000000,-0724,0836,12285,030.0,045.5,0.474,741.3,01.18,0.508
2015-03-28 00:10:00,3536E-3,5C000000,-0724,0835,12404,030.0,045.5,0.473,741.3,01.18,0.508
2015-03-28 00:11:00,3603E-3,5C000000,-0724,0835,12169,030.0,045.5,0.473,741.4,01.18,0.508
2015-03-28 00:12:00,3660E-3,5C000000,-0724,0835,12215,030.0,045.5,0.473,741.4,01.18,0.508
2015-03-28 00:13:00,3662E-3,5C000000,-0724,0834,12074,030.0,045.5,0.473,741.3,01.18,0.508
2015-03-28 00:14:00,3576E-3,5C000000,-0724,0834,12085,030.0,045.5,0.474,741.3,01.18,0.508
2015-03-28 00:15:00,3665E-3,5C000000,-0724,0834,11938,030.0,045.5,0.473,741.4,01.18,0.508
2015-03-28 00:16:00,3564E-3,5C000000,-0724,0834,12084,030.1,045.5,0.473,741.4,01.18,0.508
2015-03-28 00:17:00,3767E-3,5C000000,-0724,0835,12030,030.1,045.5,0.473,741.4,01.18,0.508
2015-03-28 00:18:00,3764E-3,5C000000,-0724,0835,12281,030.1,045.5,0.473,741.4,01.18,0.508
2015-03-28 00:19:00,3946E-3,5C000000,-0724,0834,12191,030.1,045.5,0.473,741.4,01.18,0.508
2015-03-28 00:20:00,3935E-3,5C000000,-0724,0835,12327,030.1,045.5,0.473,741.4,01.18,0.508
2015-03-28 00:21:00,3915E-3,5C000000,-0724,0834,12020,030.1,045.5,0.473,741.4,01.18,0.508
2015-03-28 00:22:00,3796E-3,5C000000,-0724,0834,12196,030.1,045.5,0.473,741.4,01.18,0.508
2015-03-28 00:23:00,4031E-3,5C000000,-0724,0834,12176,030.1,045.5,0.473,741.4,01.18,0.508
2015-03-28 00:24:00,3801E-3,5C000000,-0724,0834,12121,030.1,045.5,0.473,741.4,01.18,0.508
2015-03-28 00:25:00,3997E-3,5C000000,-0724,0835,12188,030.1,045.5,0.473,741.4,01.18,0.508
2015-03-28 00:26:00,3782E-3,5C000000,-0724,0835,12073,030.1,045.5,0.473,741.4,01.18,0.508
2015-03-28 00:27:00,3610E-3,5C000000,-0724,0835,12276,030.1,045.5,0.473,741.4,01.18,0.508
2015-03-28 00:28:00,3777E-3,5C000000,-0724,0834,12236,030.1,045.5,0.473,741.4,01.18,0.508
2015-03-28 00:29:00,3891E-3,5C000000,-0724,0835,12247,030.1,045.5,0.473,741.4,01.18,0.508
2015-03-28 00:30:00,3787E-3,5C000000,-0724,0835,12232,030.2,045.5,0.473,741.4,01.18,0.508
2015-03-28 00:31:00,3903E-3,5C000000,-0724,0835,12182,030.1,045.5,0.473,741.4,01.18,0.508
2015-03-28 00:32:00,4162E-3,5C000000,-0724,0835,12205,030.1,045.5,0.473,741.4,01.18,0.508
2015-03-28 00:33:00,3952E-3,5C000000,-0724,0834,12119,030.2,045.5,0.473,741.4,01.18,0.508
2015-03-28 00:34:00,3892E-3,5C000000,-0724,0835,12265,030.1,045.5,0.473,741.4,01.18,0.508
2015-03-28 00:35:00,4093E-3,5C000000,-0724,0835,12008,030.2,045.5,0.473,741.4,01.18,0.508
2015-03-28 00:36:00,4076E-3,5C000000,-0724,0835,12177,030.2,045.5,0.473,741.3,01.18,0.508
2015-03-28 00:37:00,4138E-3,5C000000,-0724,0835,12231,030.2,045.5,0.473,741.3,01.18,0.508
2015-03-28 00:38:00,4113E-3,5C000000,-0724,0834,12038,030.2,045.5,0.473,741.3,01.18,0.508
2015-03-28 00:39:00,3976E-3,5C000000,-0724,0834,12258,030.2,045.5,0.473,741.4,01.18,0.508
2015-03-28 00:40:00,3891E-3,5C000000,-0724,0835,12118,030.2,045.5,0.473,741.4,01.18,0.508
2015-03-28 00:41:00,3888E-3,5C000000,-0724,0834,12137,030.2,045.5,0.473,741.4,01.18,0.508
2015-03-28 00:42:00,3769E-3,5C000000,-0724,0835,12227,030.2,045.5,0.473,741.4,01.18,0.508
2015-03-28 00:43:00,3830E-3,5C000000,-0724,0835,12134,030.3,045.5,0.473,741.4,01.18,0.508
2015-03-28 00:44:00,3889E-3,5C000000,-0724,0835,12165,030.2,045.5,0.473,741.4,01.18,0.508
2015-03-28 00:45:00,3926E-3,5C000000,-0724,0834,12048,030.3,045.5,0.473,741.4,01.18,0.508
2015-03-28 00:46:00,3873E-3,5C000000,-0724,0834,12155,030.2,045.5,0.472,741.4,01.18,0.508
2015-03-28 00:47:00,4034E-3,5C000000,-0724,0835,12068,030.3,045.5,0.473,741.4,01.18,0.508
2015-03-28 00:48:00,4395E-3,5C000000,-0724,0835,12068,030.3,045.5,0.473,741.4,01.18,0.508
2015-03-28 00:49:00,3836E-3,5C000000,-0724,0834,12167,030.3,045.5,0.473,741.4,01.18,0.508
2015-03-28 00:50:00,3999E-3,5C000000,-0724,0834,12084,030.3,045.5,0.473,741.4,01.18,0.508
2015-03-28 00:51:00,3855E-3,5C000000,-0724,0834,12139,030.3,045.5,0.473,741.4,01.18,0.508
2015-03-28 00:52:00,3973E-3,5C000000,-0724,0835,12201,030.3,045.5,0.473,741.4,01.18,0.508
2015-03-28 00:53:00,4154E-3,5C000000,-0724,0835,12169,030.3,045.5,0.473,741.4,01.18,0.508
2015-03-28 00:54:00,4204E-3,5C000000,-0724,0835,12124,030.3,045.5,0.473,741.3,01.18,0.508
2015-03-28 00:55:00,4284E-3,5C000000,-0724,0834,12132,030.3,045.5,0.473,741.3,01.18,0.508
2015-03-28 00:56:00,4391E-3,5C000000,-0724,0834,12139,030.3,045.5,0.473,741.2,01.18,0.508
2015-03-28 00:57:00,4500E-3,5C000000,-0724,0834,12209,030.3,045.5,0.472,741.2,01.18,0.508
2015-03-28 00:58:00,4377E-3,5C000000,-0724,0835,12182,030.4,045.5,0.473,741.2,01.18,0.508
2015-03-28 00:59:00,4349E-3,5C000000,-0724,0835,12064,030.4,045.5,0.473,741.2,01.18,0.508
2015-03-28 01:00:00,4097E-3,5C000000,-0724,0834,12163,030.4,045.5,0.473,741.2,01.18,0.508
2015-03-28 01:01:00,4640E-3,5C000000,-0724,0835,12193,030.4,045.5,0.473,741.2,01.18,0.508
2015-03-28 01:02:00,4322E-3,5C000000,-0724,0834,12099,030.4,045.5,0.472,741.1,01.18,0.508
2015-03-28 01:03:00,4308E-3,5C000000,-0724,0835,12312,030.4,045.5,0.472,741.2,01.18,0.508
2015-03-28 01:04:00,4398E-3,5C000000,-0724,0834,12138,030.4,045.5,0.473,741.2,01.18,0.508
2015-03-28 01:05:00,4485E-3,5C000000,-0724,0835,12138,030.4,045.5,0.473,741.2,01.18,0.508
2015-03-28 01:06:00,4489E-3,5C000000,-0724,0835,12118,030.4,045.5,0.473,741.3,01.18,0.508
2015-03-28 01:07:00,4393E-3,5C000000,-0724,0834,12196,030.4,045.5,0.473,741.3,01.18,0.508
2015-03-28 01:08:00,4546E-3,5C000000,-0724,0835,12171,030.4,045.5,0.472,741.3,01.18,0.508
2015-03-28 01:09:00,4432E-3,5C000000,-0724,0834,12147,030.4,045.5,0.472,741.3,01.18,0.508
2015-03-28 01:10:00,4196E-3,5C000000,-0724,0834,12032,030.4,045.5,0.473,741.3,01.18,0.508
2015-03-28 01:11:00,4044E-3,5C000000,-0724,0835,12085,030.4,045.5,0.473,741.3,01.18,0.508
2015-03-28 01:12:00,4038E-3,5C000000,-0724,0834,12166,030.4,045.5,0.473,741.3,01.18,0.508
2015-03-28 01:13:00,3864E-3,5C000000,-0724,0835,12113,030.5,045.5,0.472,741.3,01.18,0.508
2015-03-28 01:14:00,3749E-3,5C000000,-0724,0835,12203,030.5,045.5,0.472,741.3,01.18,0.508
2015-03-28 01:15:00,3566E-3,5C000000,-0724,0835,12136,030.5,045.5,0.473,741.3,01.18,0.508
2015-03-28 01:16:00,3398E-3,5C000000,-0724,0834,12095,030.5,045.5,0.473,741.3,01.18,0.508
2015-03-28 01:17:00,3410E-3,5C000000,-0724,0834,12200,030.5,045.5,0.473,741.3,01.18,0.508
2015-03-28 01:18:00,3916E-3,5C000000,-0724,0834,11962,030.5,045.5,0.472,741.3,01.18,0.508
2015-03-28 01:19:00,4214E-3,5C000000,-0724,0835,12094,030.5,045.5,0.472,741.3,01.18,0.508
2015-03-28 01:20:00,4059E-3,5C000000,-0724,0835,12182,030.5,045.5,0.472,741.3,01.18,0.508
2015-03-28 01:21:00,3967E-3,5C000000,-0724,0835,12169,030.5,045.5,0.472,741.3,01.18,0.508
2015-03-28 01:22:00,3620E-3,5C000000,-0724,0835,12170,030.5,045.5,0.473,741.2,01.18,0.508
2015-03-28 01:23:00,3460E-3,5C000000,-0724,0834,12163,030.5,045.5,0.472,741.2,01.18,0.508
2015-03-28 01:24:00,3321E-3,5C000000,-0724,0835,12209,030.5,045.5,0.472,741.2,01.18,0.508
2015-03-28 01:25:00,3509E-3,5C000000,-0724,0834,12086,030.5,045.5,0.472,741.2,01.18,0.508
2015-03-28 01:26:00,3566E-3,5C000000,-0724,0835,12013,030.6,045.5,0.472,741.2,01.18,0.508
2015-03-28 01:27:00,3336E-3,5C000000,-0724,0834,12014,030.6,045.5,0.473,741.2,01.18,0.508
2015-03-28 01:28:00,3540E-3,5C000000,-0724,0834,12153,030.6,045.5,0.472,741.2,01.18,0.508
2015-03-28 01:29:00,3563E-3,5C000000,-0724,0834,12098,030.6,045.5,0.472,741.2,01.18,0.508
2015-03-28 01:30:00,3556E-3,5C000000,-0724,0835,12064,030.6,045.5,0.472,741.2,01.18,0.508
2015-03-28 01:31:00,3461E-3,5C000000,-0724,0835,12152,030.6,045.5,0.472,741.1,01.18,0.508
2015-03-28 01:32:00,3369E-3,5C000000,-0724,0835,12200,030.6,045.5,0.472,741.1,01.18,0.508
2015-03-28 01:33:00,3576E-3,5C000000,-0724,0834,12190,030.6,045.5,0.473,741.2,01.18,0.508
2015-03-28 01:34:00,3395E-3,5C000000,-0724,0836,12174,030.6,045.5,0.472,741.2,01.18,0.508
2015-03-28 01:35:00,3402E-3,5C000000,-0724,0835,12200,030.6,045.5,0.472,741.1,01.18,0.508
2015-03-28 01:36:00,3332E-3,5C000000,-0724,0834,12251,030.6,045.5,0.472,741.2,01.18,0.508
2015-03-28 01:37:00,3607E-3,5C000000,-0724,0835,12249,030.7,045.5,0.472,741.1,01.18,0.508
2015-03-28 01:38:00,3554E-3,5C000000,-0724,0835,12238,030.6,045.5,0.472,741.0,01.18,0.508
2015-03-28 01:39:00,3702E-3,5C000000,-0724,0835,12149,030.7,045.5,0.472,741.0,01.18,0.508
2015-03-28 01:40:00,3819E-3,5C000000,-0724,0834,11919,030.7,045.5,0.472,741.0,01.18,0.508
2015-03-28 01:41:00,3970E-3,5C000000,-0724,0835,12140,030.7,045.5,0.472,741.1,01.18,0.508
2015-03-28 01:42:00,3761E-3,5C000000,-0724,0835,12290,030.7,045.5,0.472,741.1,01.18,0.508
2015-03-28 01:43:00,3734E-3,5C000000,-0724,0835,12009,030.7,045.5,0.472,741.1,01.18,0.508
2015-03-28 01:44:00,3534E-3,5C000000,-0724,0834,12215,030.7,045.5,0.472,741.1,01.18,0.508
2015-03-28 01:45:00,3417E-3,5C000000,-0724,0834,12103,030.7,045.5,0.472,741.1,01.18,0.508
2015-03-28 01:46:00,3420E-3,5C000000,-0724,0835,12100,030.8,045.5,0.472,741.1,01.18,0.508
2015-03-28 01:47:00,3449E-3,5C000000,-0724,0835,12219,030.7,045.5,0.472,741.1,01.18,0.508
2015-03-28 01:48:00,3646E-3,5C000000,-0724,0834,12082,030.8,045.5,0.472,741.1,01.18,0.508
2015-03-28 01:49:00,3394E-3,5C000000,-0724,0834,12039,030.7,045.5,0.472,741.0,01.18,0.508
2015-03-28 01:50:00,3444E-3,5C000000,-0724,0835,12003,030.8,045.5,0.472,741.0,01.18,0.508
2015-03-28 01:51:00,3394E-3,5C000000,-0724,0834,12143,030.8,045.5,0.472,741.0,01.18,0.508
2015-03-28 01:52:00,3551E-3,5C000000,-0724,0834,12041,030.8,045.5,0.472,740.9,01.18,0.508
2015-03-28 01:53:00,3578E-3,5C000000,-0724,0835,12156,030.8,045.5,0.472,741.0,01.18,0.508
2015-03-28 01:54:00,3687E-3,5C000000,-0724,0835,12100,030.8,045.5,0.472,741.0,01.18,0.508
2015-03-28 01:55:00,3566E-3,5C000000,-0724,0835,12243,030.8,045.5,0.472,740.9,01.18,0.508
2015-03-28 01:56:00,3655E-3,5C000000,-0724,0835,12225,030.8,045.5,0.472,740.9,01.18,0.508
2015-03-28 01:57:00,3813E-3,5C000000,-0724,0835,12208,030.8,045.5,0.472,740.8,01.18,0.508
2015-03-28 01:58:00,3832E-3,5C000000,-0724,0835,12115,030.8,045.5,0.472,740.9,01.18,0.508
2015-03-28 01:59:00,3972E-3,5C000000,-0724,0835,12180,030.8,045.5,0.472,740.9,01.18,0.508
2015-03-28 02:00:00,3849E-3,5C000000,-0724,0835,12210,030.9,045.5,0.472,741.0,01.18,0.508
2015-03-28 02:01:00,3819E-3,5C000000,-0724,0835,12181,030.9,045.5,0.472,741.0,01.18,0.508
2015-03-28 02:02:00,3685E-3,5C000000,-0724,0836,12249,030.9,045.5,0.472,741.0,01.18,0.508
2015-03-28 02:03:00,3765E-3,5C000000,-0724,0835,12000,030.9,045.5,0.472,741.0,01.18,0.508
2015-03-28 02:04:00,3677E-3,5C000000,-0724,0834,12117,030.9,045.5,0.472,741.0,01.18,0.508
2015-03-28 02:05:00,3782E-3,5C000000,-0724,0835,12094,030.9,045.5,0.471,740.9,01.18,0.508
2015-03-28 02:06:00,3760E-3,5C000000,-0724,0835,12031,030.9,045.5,0.471,740.9,01.18,0.508
2015-03-28 02:07:00,3784E-3,5C000000,-0724,0835,12147,030.9,045.5,0.472,740.9,01.18,0.508
2015-03-28 02:08:00,3840E-3,5C000000,-0724,0835,12157,030.9,045.5,0.472,740.9,01.18,0.508
2015-03-28 02:09:00,3625E-3,5C000000,-0724,0836,12088,030.9,045.5,0.472,740.9,01.18,0.508
2015-03-28 02:10:00,3833E-3,5C000000,-0724,0836,12219,030.9,045.5,0.472,740.9,01.18,0.508
2015-03-28 02:11:00,3595E-3,5C000000,-0724,0835,12165,030.9,045.5,0.472,740.9,01.18,0.508
2015-03-28 02:12:00,3571E-3,5C000000,-0724,0836,12267,030.8,045.5,0.472,741.0,01.18,0.508
2015-03-28 02:13:00,3683E-3,5C000000,-0724,0835,12325,030.8,045.5,0.472,741.0,01.18,0.508
2015-03-28 02:14:00,3540E-3,5C000000,-0724,0834,12114,030.6,045.5,0.472,741.1,01.18,0.508
2015-03-28 02:15:00,3554E-3,5C000000,-0724,0835,12123,030.4,045.5,0.472,741.0,01.18,0.508
2015-03-28 02:16:00,3769E-3,5C000000,-0724,0835,12180,030.3,045.5,0.472,741.0,01.18,0.508
2015-03-28 02:17:00,3647E-3,5C000000,-0724,0834,12162,030.1,045.5,0.473,741.0,01.18,0.508
2015-03-28 02:18:00,3703E-3,5C000000,-0724,0835,12153,029.9,045.5,0.473,741.0,01.18,0.508
2015-03-28 02:19:00,3583E-3,5C000000,-0724,0833,12142,029.7,045.5,0.473,741.0,01.18,0.508
2015-03-28 02:20:00,3572E-3,5C000000,-0724,0834,12203,029.4,045.5,0.473,741.0,01.18,0.508
2015-03-28 02:21:00,3723E-3,5C000000,-0724,0834,12178,029.2,045.5,0.474,741.0,01.18,0.508
2015-03-28 02:22:00,3685E-3,5C000000,-0724,0834,12268,028.9,045.5,0.474,741.1,01.18,0.508
2015-03-28 02:23:00,3770E-3,5C000000,-0724,0834,12218,028.7,045.5,0.475,741.1,01.18,0.508
2015-03-28 02:24:00,3703E-3,5C000000,-0724,0834,12171,028.4,045.5,0.475,741.1,01.18,0.508
2015-03-28 02:25:00,3619E-3,5C000000,-0724,0834,12151,028.3,045.5,0.475,741.0,01.18,0.508
2015-03-28 02:26:00,3657E-3,5C000000,-0724,0833,12035,028.2,045.5,0.475,741.0,01.18,0.508
2015-03-28 02:27:00,3665E-3,5C000000,-0724,0833,11966,028.1,045.5,0.476,740.9,01.18,0.508
2015-03-28 02:28:00,3844E-3,5C000000,-0724,0833,12083,028.0,045.5,0.476,740.9,01.18,0.508
2015-03-28 02:29:00,3467E-3,5C000000,-0724,0833,12086,028.0,045.5,0.476,740.9,01.18,0.508
2015-03-28 02:30:00,3832E-3,5C000000,-0724,0834,12283,027.9,045.5,0.476,740.8,01.18,0.508
2015-03-28 02:31:00,3926E-3,5C000000,-0724,0834,12127,028.0,045.5,0.477,740.8,01.18,0.508
2015-03-28 02:32:00,3867E-3,5C000000,-0724,0832,12200,028.0,045.5,0.476,740.9,01.18,0.508
2015-03-28 02:33:00,3850E-3,5C000000,-0724,0834,12040,028.1,045.5,0.476,740.8,01.18,0.508
2015-03-28 02:34:00,3783E-3,5C000000,-0724,0834,12231,028.2,045.5,0.476,740.7,01.18,0.508
2015-03-28 02:35:00,3807E-3,5C000000,-0724,0834,12202,028.3,045.5,0.476,740.9,01.18,0.508
2015-03-28 02:36:00,3963E-3,5C000000,-0724,0833,12328,028.4,045.5,0.476,740.8,01.18,0.508
2015-03-28 02:37:00,3763E-3,5C000000,-0724,0834,11960,028.4,045.5,0.476,740.9,01.18,0.508
2015-03-28 02:38:00,4099E-3,5C000000,-0724,0834,12131,028.5,045.5,0.476,740.9,01.18,0.508
2015-03-28 02:39:00,3824E-3,5C000000,-0724,0834,12100,028.6,045.5,0.476,740.9,01.18,0.508
2015-03-28 02:40:00,4157E-3,5C000000,-0724,0833,12112,028.7,045.5,0.475,740.9,01.18,0.508
2015-03-28 02:41:00,4028E-3,5C000000,-0724,0834,12190,028.7,045.5,0.475,740.9,01.18,0.508
2015-03-28 02:42:00,3985E-3,5C000000,-0724,0835,12229,028.9,045.5,0.476,741.0,01.18,0.508
2015-03-28 02:43:00,4064E-3,5C000000,-0724,0833,12151,028.9,045.5,0.475,741.0,01.18,0.508
2015-03-28 02:44:00,3990E-3,5C000000,-0724,0835,12136,029.0,045.4,0.475,741.1,01.18,0.508
2015-03-28 02:45:00,4059E-3,5C000000,-0724,0834,12147,029.0,045.5,0.475,741.0,01.18,0.508
2015-03-28 02:46:00,4128E-3,5C000000,-0724,0834,12053,029.1,045.5,0.475,741.1,01.18,0.508
2015-03-28 02:47:00,4060E-3,5C000000,-0724,0834,12163,029.1,045.5,0.475,741.1,01.18,0.508
2015-03-28 02:48:00,4199E-3,5C000000,-0724,0834,12004,029.2,045.5,0.475,741.0,01.18,0.508
2015-03-28 02:49:00,4122E-3,5C000000,-0724,0834,12102,029.3,045.5,0.474,741.1,01.18,0.508
2015-03-28 02:50:00,3918E-3,5C000000,-0724,0834,12136,029.4,045.5,0.474,741.1,01.18,0.508
2015-03-28 02:51:00,4152E-3,5C000000,-0724,0834,12152,029.4,045.5,0.475,741.1,01.18,0.508
2015-03-28 02:52:00,4022E-3,5C000000,-0724,0834,12136,029.4,045.5,0.474,741.1,01.18,0.508
2015-03-28 02:53:00,3789E-3,5C000000,-0724,0834,12248,029.5,045.5,0.474,741.1,01.18,0.508
2015-03-28 02:54:00,3876E-3,5C000000,-0724,0835,12182,029.5,045.5,0.474,741.0,01.18,0.508
2015-03-28 02:55:00,3845E-3,5C000000,-0724,0835,12097,029.6,045.5,0.474,741.0,01.18,0.508
2015-03-28 02:56:00,4026E-3,5C000000,-0724,0834,12064,029.6,045.5,0.474,740.9,01.18,0.508
2015-03-28 02:57:00,4044E-3,5C000000,-0724,0835,12122,029.7,045.5,0.474,741.0,01.18,0.508
2015-03-28 02:58:00,3967E-3,5C000000,-0724,0834,12293,029.8,045.5,0.474,741.0,01.18,0.508
2015-03-28 02:59:00,3999E-3,5C000000,-0724,0834,12085,029.8,045.5,0.474,741.1,01.18,0.508
2015-03-28 03:00:00,4107E-3,5C000000,-0724,0834,12069,029.8,045.5,0.474,741.1,01.18,0.508
2015-03-28 03:01:00,4059E-3,5C000000,-0724,0834,12260,029.8,045.5,0.474,741.1,01.18,0.508
2015-03-28 03:02:00,4093E-3,5C000000,-0724,0835,12137,029.9,045.5,0.473,741.1,01.18,0.508
2015-03-28 03:03:00,3886E-3,5C000000,-0724,0835,12091,029.9,045.5,0.474,741.0,01.18,0.508
2015-03-28 03:04:00,3924E-3,5C000000,-0724,0834,12172,030.0,045.5,0.474,741.0,01.18,0.508
2015-03-28 03:05:00,3966E-3,5C000000,-0724,0834,12221,030.0,045.5,0.473,741.0,01.18,0.508
2015-03-28 03:06:00,4017E-3,5C000000,-0724,0834,12049,030.0,045.5,0.473,741.0,01.18,0.508
2015-03-28 03:07:00,3900E-3,5C000000,-0724,0834,12171,030.1,045.5,0.473,741.0,01.18,0.508
2015-03-28 03:08:00,3819E-3,5C000000,-0724,0834,12166,030.1,045.5,0.473,741.0,01.18,0.508
2015-03-28 03:09:00,3782E-3,5C000000,-0724,0835,12237,030.2,045.5,0.473,741.0,01.18,0.508
2015-03-28 03:10:00,3941E-3,5C000000,-0724,0835,12197,030.2,045.5,0.473,741.0,01.18,0.508
2015-03-28 03:11:00,3962E-3,5C000000,-0724,0835,12169,030.2,045.5,0.473,741.0,01.18,0.508
2015-03-28 03:12:00,3848E-3,5C000000,-0724,0835,12083,030.3,045.5,0.473,741.0,01.18,0.508
2015-03-28 03:13:00,3743E-3,5C000000,-0724,0835,11963,030.3,045.5,0.472,741.0,01.18,0.508
2015-03-28 03:14:00,3935E-3,5C000000,-0724,0836,12200,030.3,045.5,0.473,741.0,01.18,0.508
2015-03-28 03:15:00,3972E-3,5C000000,-0724,0835,12073,030.3,045.5,0.473,741.0,01.18,0.508
2015-03-28 03:16:00,3953E-3,5C000000,-0724,0835,12116,030.4,045.5,0.473,741.0,01.18,0.508
2015-03-28 03:17:00,4006E-3,5C000000,-0724,0835,12046,030.4,045.5,0.472,741.0,01.18,0.508
2015-03-28 03:18:00,3999E-3,5C000000,-0724,0835,12171,030.4,045.5,0.472,741.0,01.18,0.508
2015-03-28 03:19:00,4080E-3,5C000000,-0724,0835,12054,030.5,045.5,0.473,741.0,01.18,0.508
2015-03-28 03:20:00,3880E-3,5C000000,-0724,0834,12252,030.5,045.5,0.473,741.1,01.18,0.508
2015-03-28 03:21:00,3877E-3,5C000000,-0724,0833,12124,030.5,045.5,0.473,741.0,01.18,0.508
2015-03-28 03:22:00,3699E-3,5C000000,-0724,0834,12106,030.5,045.5,0.473,741.0,01.18,0.508
2015-03-28 03:23:00,3995E-3,5C000000,-0724,0833,12277,030.6,045.5,0.472,741.1,01.18,0.508
2015-03-28 03:24:00,3693E-3,5C000000,-0724,0834,12086,030.6,045.5,0.472,740.9,01.18,0.508
2015-03-28 03:25:00,3778E-3,5C000000,-0724,0834,12264,030.6,045.5,0.472,740.9,01.18,0.508
2015-03-28 03:26:00,3859E-3,5C000000,-0724,0835,12377,030.6,045.5,0.472,740.7,01.18,0.508
2015-03-28 03:27:00,3928E-3,5C000000,-0724,0834,12205,030.7,045.5,0.472,740.8,01.18,0.508
2015-03-28 03:28:00,3822E-3,5C000000,-0724,0835,12113,030.7,045.5,0.472,740.9,01.18,0.508
2015-03-28 03:29:00,3868E-3,5C000000,-0724,0835,12142,030.7,045.5,0.472,741.0,01.18,0.508
2015-03-28 03:30:00,3975E-3,5C000000,-0724,0834,12147,030.7,045.5,0.472,740.8,01.18,0.508
2015-03-28 03:31:00,3850E-3,5C000000,-0724,0835,12217,030.7,045.5,0.472,740.9,01.18,0.508
2015-03-28 03:32:00,3860E-3,5C000000,-0724,0835,11925,030.6,045.5,0.472,740.9,01.18,0.508
2015-03-28 03:33:00,3868E-3,5C000000,-0724,0834,12270,030.6,045.5,0.472,741.0,01.18,0.508
2015-03-28 03:34:00,3788E-3,5C000000,-0724,0836,12158,030.5,045.5,0.472,741.0,01.18,0.508
2015-03-28 03:35:00,4051E-3,5C000000,-0724,0835,12060,030.3,045.5,0.473,741.0,01.18,0.508
2015-03-28 03:36:00,3945E-3,5C000000,-0724,0834,12025,030.2,045.5,0.472,740.9,01.18,0.508
2015-03-28 03:37:00,4021E-3,5C000000,-0724,0834,12221,030.0,045.5,0.473,741.0,01.18,0.508
2015-03-28 03:38:00,3954E-3,5C000000,-0724,0834,12177,029.8,045.5,0.473,740.9,01.18,0.508
2015-03-28 03:39:00,3774E-3,5C000000,-0724,0834,12203,029.6,045.5,0.474,740.9,01.18,0.508
2015-03-28 03:40:00,4124E-3,5C000000,-0724,0834,12018,029.4,045.5,0.473,741.0,01.18,0.508
2015-03-28 03:41:00,3974E-3,5C000000,-0724,0833,12275,029.2,045.5,0.474,741.0,01.18,0.508
2015-03-28 03:42:00,4030E-3,5C000000,-0724,0834,12207,028.9,045.5,0.474,740.9,01.18,0.508
2015-03-28 03:43:00,4078E-3,5C000000,-0724,0834,12164,028.6,045.5,0.474,741.0,01.18,0.508
2015-03-28 03:44:00,3906E-3,5C000000,-0724,0833,12270,028.4,045.5,0.475,741.0,01.18,0.508
2015-03-28 03:45:00,4073E-3,5C000000,-0724,0833,12156,028.1,045.5,0.475,741.0,01.18,0.508
2015-03-28 03:46:00,3853E-3,5C000000,-0724,0833,12123,027.9,045.5,0.476,741.0,01.18,0.508
2015-03-28 03:47:00,4161E-3,5C000000,-0724,0833,12132,027.8,045.5,0.476,740.9,01.18,0.508
2015-03-28 03:48:00,4001E-3,5C000000,-0724,0834,12244,027.7,045.5,0.476,740.9,01.18,0.508
2015-03-28 03:49:00,4172E-3,5C000000,-0724,0833,12145,027.6,045.4,0.476,740.9,01.18,0.508
2015-03-28 03:50:00,3899E-3,5C000000,-0724,0834,12287,027.6,045.5,0.477,740.9,01.18,0.508
2015-03-28 03:51:00,3972E-3,5C000000,-0724,0833,12153,027.7,045.5,0.477,740.9,01.18,0.508
2015-03-28 03:52:00,3889E-3,5C000000,-0724,0833,12178,027.8,045.5,0.476,740.9,01.18,0.508
2015-03-28 03:53:00,3954E-3,5C000000,-0724,0833,12140,027.9,045.5,0.476,740.9,01.18,0.508
2015-03-28 03:54:00,4148E-3,5C000000,-0724,0834,12135,028.0,045.5,0.477,740.8,01.18,0.508
2015-03-28 03:55:00,3953E-3,5C000000,-0724,0834,12306,028.1,045.5,0.477,740.8,01.18,0.508
2015-03-28 03:56:00,3820E-3,5C000000,-0724,0833,12311,028.2,045.5,0.476,740.7,01.18,0.508
2015-03-28 03:57:00,4017E-3,5C000000,-0724,0833,11994,028.3,045.4,0.476,740.6,01.18,0.508
2015-03-28 03:58:00,3952E-3,5C000000,-0724,0834,12108,028.4,045.5,0.476,740.6,01.18,0.508
2015-03-28 03:59:00,3937E-3,5C000000,-0724,0834,12161,028.5,045.5,0.476,740.6,01.18,0.508
2015-03-28 04:00:00,3999E-3,5C000000,-0724,0833,12236,028.6,045.4,0.476,740.6,01.18,0.508
2015-03-28 04:01:00,4015E-3,5C000000,-0724,0833,12189,028.7,045.5,0.475,740.6,01.18,0.508
2015-03-28 04:02:00,3838E-3,5C000000,-0724,0833,12292,028.8,045.5,0.476,740.6,01.18,0.508
2015-03-28 04:03:00,4046E-3,5C000000,-0724,0833,12162,028.9,045.5,0.475,740.6,01.18,0.508
2015-03-28 04:04:00,4046E-3,5C000000,-0724,0833,12058,028.9,045.5,0.475,740.6,01.18,0.508
2015-03-28 04:05:00,3897E-3,5C000000,-0724,0833,12098,029.0,045.5,0.475,740.6,01.18,0.508
2015-03-28 04:06:00,3831E-3,5C000000,-0724,0834,12271,029.1,045.5,0.475,740.6,01.18,0.508
2015-03-28 04:07:00,3876E-3,5C000000,-0724,0834,12151,029.1,045.5,0.475,740.6,01.18,0.508
2015-03-28 04:08:00,3914E-3,5C000000,-0724,0833,12157,029.2,045.5,0.474,740.6,01.18,0.508
2015-03-28 04:09:00,3938E-3,5C000000,-0724,0834,12050,029.3,045.5,0.475,740.7,01.18,0.508
2015-03-28 04:10:00,3935E-3,5C000000,-0724,0834,12075,029.4,045.5,0.474,740.7,01.18,0.508
2015-03-28 04:11:00,4114E-3,5C000000,-0724,0834,12175,029.4,045.5,0.474,740.6,01.18,0.508
2015-03-28 04:12:00,3691E-3,5C000000,-0724,0835,12137,029.4,045.5,0.474,740.6,01.18,0.508
2015-03-28 04:13:00,3663E-3,5C000000,-0724,0834,12298,029.5,045.5,0.474,740.6,01.18,0.508
2015-03-28 04:14:00,3820E-3,5C000000,-0724,0835,12142,029.6,045.5,0.474,740.6,01.18,0.508
2015-03-28 04:15:00,3907E-3,5C000000,-0724,0835,12085,029.6,045.5,0.473,740.6,01.18,0.508
2015-03-28 04:16:00,3763E-3,5C000000,-0724,0834,12126,029.7,045.5,0.474,740.6,01.18,0.508
2015-03-28 04:17:00,3797E-3,5C000000,-0724,0834,12176,029.8,045.5,0.474,740.6,01.18,0.508
2015-03-28 04:18:00,3947E-3,5C000000,-0724,0835,11921,029.8,045.5,0.473,740.7,01.18,0.508
2015-03-28 04:19:00,3974E-3,5C000000,-0724,0835,12068,029.9,045.5,0.474,740.7,01.18,0.508
2015-03-28 04:20:00,4065E-3,5C000000,-0724,0834,12126,029.9,045.5,0.473,740.6,01.18,0.508